"SCET";"TARGET";"ELECTRON_DENSITY";"ERROR_FLAG";"ELECTRON_DENSITY_ERROR";"FREQ_FCE";"MEASURED_VALUE";"MEASURED_ITEM";"FREQ_PLASMA";"FREQ_UPPER_HYBRID";"FREQ_R_EQUALS_ZERO";"FREQ_L_EQUALS_ZERO";"ORBIT_NUMBER";"SATURN_RADIUS";"SATURN_IAU_LONGITUDE";"SATURN_SLS4_S_LONGITUDE";"SATURN_SLS4_N_LONGITUDE";"SATURN_SLS5_S_LONGITUDE";"SATURN_SLS5_N_LONGITUDE";"SATURN_LOCAL_TIME";"SATURN_KRONOGRAPHIC_LATITUDE";"SATURN_MAGNETIC_LATITUDE";"SATURN_L";"SATURN_L_OFFSET";"SATURN_SOLAR_EQUATORIAL_X";"SATURN_SOLAR_EQUATORIAL_Y";"SATURN_SOLAR_EQUATORIAL_Z";"SATURN_ALTITUDE";"ENCELADUS_ENCOUNTER_NUMBER";"ENCELADUS_RADIUS";"ENCELADUS_COROTATIONAL_X";"ENCELADUS_COROTATIONAL_Y";"ENCELADUS_COROTATIONAL_Z";"ENCELADUS_TRUE_ANOMALY";"ENCELADUS_PERIAPSIS_TIME";"JUPITER_RADIUS";"JUPITER_SYSTEMIII_LONGITUDE";"JUPITER_MAGNETIC_LATITUDE";"JUPITER_MAGNETIC_LOCAL_TIME";"JUPITER_L";"IO_PHASE";"EARTH_RADIUS";"EARTH_MAGNETIC_LATITUDE";"EARTH_LOCAL_TIME";"EARTH_L"
"[UTC]";"[0=Saturn, 1=Enceladus, 2=Jupiter, 3=Earth]";"[cm-3]";"[0=automated, 1=manual]";"[normalized density error]";"[Hz]";"[Hz]";"[0=upper hybrid frequency, 1=plasma frequency cutoff]";"[Hz]";"[Hz]";"[Hz]";"[Hz}";"[0, A, B, C, 3, 4, ... , 292, 293]";"[Rs where 1Rs=60268km]";"[degrees]";"[degrees]";"[degrees]";"[degrees]";"[degrees]";"[hours]";"[degrees]";"[degrees where offset=2293km north]";"[Rs where 1Rs=60268km]";"[Rs where 1Rs=60268km and offset=2293km north]";"[Rs where 1Rs=60268km]";"[Rs where 1Rs=60268km]";"[Rs where 1Rs=60268km]";"[km where ellipsoid a,b=60268km and c=54364km]";"[E0, E1, E2, ... , E21, E22]";"[Renc where 1Renc=252.1km]";"[Renc where 1Renc=252.1km]";"[Renc where 1Renc=252.1km]";"[Renc where 1Renc=252.1km]";"[degrees]";"[UTC]";"[Rj where 1Rj=71492km]";"[degrees]";"[degrees using JRM09 model]";"[hours using JRM09 model]";"[Rj where 1Rj=71492km]";"[degrees]";"[Re where 1Re=6378.1366km]";"[degrees]";"[hours]";"[Re where 1Re=6378.1366km]"
2012-01-05T00:00:01.649Z;0;1.4140e+01;0;     0.120;   924.504;  33781.707; 0;  33769.055;  33781.707;  34234.469;  33309.965;159;   7.916; 292.212;;;  71.854;  47.254;   9.584;  -0.256;  -0.532;   7.916;   7.908;   6.384;  -4.680;  -0.035;;;;;;;;;;;;;;;;;;
2012-01-05T00:00:17.649Z;0;1.4330e+01;0;     0.119;   924.504;  34007.285; 0;  33994.715;  34007.285;  34460.109;  33535.605;159;   7.918; 292.345;;;  71.988;  47.388;   9.585;  -0.257;  -0.532;   7.918;   7.910;   6.387;  -4.679;  -0.035;;;;;;;;;;;;;;;;;;
2012-01-05T00:00:33.649Z;0;1.4400e+01;0;     0.118;   924.504;  34085.805; 0;  34073.266;  34085.805;  34538.652;  33614.148;159;   7.920; 292.478;;;  72.121;  47.521;   9.586;  -0.257;  -0.532;   7.920;   7.912;   6.390;  -4.678;  -0.036;;;;;;;;;;;;;;;;;;
2012-01-05T00:00:49.649Z;0;1.4390e+01;0;     0.115;   924.504;  34083.133; 0;  34070.594;  34083.133;  34535.980;  33611.477;159;   7.922; 292.610;;;  72.254;  47.655;   9.587;  -0.258;  -0.533;   7.922;   7.914;   6.393;  -4.677;  -0.036;;;;;;;;;;;;;;;;;;
2012-01-05T00:01:05.649Z;0;1.4490e+01;0;     0.122;   921.340;  34195.988; 0;  34183.574;  34195.988;  34647.348;  33726.008;159;   7.924; 292.743;;;  72.387;  47.788;   9.588;  -0.258;  -0.533;   7.924;   7.916;   6.396;  -4.677;  -0.036;;;;;;;;;;;;;;;;;;
2012-01-05T00:01:21.649Z;0;1.4390e+01;0;     0.118;   921.340;  34074.375; 0;  34061.918;  34074.375;  34525.703;  33604.363;159;   7.926; 292.876;;;  72.520;  47.922;   9.590;  -0.259;  -0.533;   7.926;   7.918;   6.399;  -4.676;  -0.036;;;;;;;;;;;;;;;;;;
2012-01-05T00:01:37.649Z;0;1.4260e+01;0;     0.118;   921.340;  33924.402; 0;  33911.891;  33924.402;  34375.688;  33454.348;159;   7.928; 293.009;;;  72.653;  48.056;   9.591;  -0.259;  -0.534;   7.928;   7.920;   6.402;  -4.675;  -0.036;;;;;;;;;;;;;;;;;;
2012-01-05T00:01:53.649Z;0;1.4510e+01;0;     0.123;   921.340;  34217.285; 0;  34204.879;  34217.285;  34668.652;  33747.312;159;   7.930; 293.142;;;  72.786;  48.190;   9.592;  -0.259;  -0.534;   7.930;   7.922;   6.405;  -4.674;  -0.036;;;;;;;;;;;;;;;;;;
2012-01-05T00:02:09.648Z;0;1.4340e+01;0;     0.128;   926.492;  34014.402; 0;  34001.781;  34014.402;  34468.184;  33541.691;159;   7.931; 293.275;;;  72.919;  48.324;   9.593;  -0.260;  -0.535;   7.932;   7.924;   6.408;  -4.673;  -0.036;;;;;;;;;;;;;;;;;;
2012-01-05T00:02:25.648Z;0;1.4110e+01;0;     0.121;   926.492;  33746.664; 0;  33733.945;  33746.664;  34200.371;  33273.879;159;   7.933; 293.408;;;  73.052;  48.458;   9.594;  -0.260;  -0.535;   7.934;   7.926;   6.411;  -4.673;  -0.036;;;;;;;;;;;;;;;;;;
2012-01-05T00:02:57.648Z;0;1.3860e+01;0;     0.132;   926.492;  33445.324; 0;  33432.488;  33445.324;  33898.945;  32972.453;159;   7.937; 293.673;;;  73.317;  48.726;   9.596;  -0.261;  -0.536;   7.937;   7.929;   6.417;  -4.671;  -0.036;;;;;;;;;;;;;;;;;;
2012-01-05T00:03:13.648Z;0;1.4310e+01;0;     0.120;   918.204;  33986.469; 0;  33974.062;  33986.469;  34436.266;  33518.062;159;   7.939; 293.806;;;  73.450;  48.860;   9.598;  -0.262;  -0.536;   7.939;   7.931;   6.420;  -4.670;  -0.036;;;;;;;;;;;;;;;;;;
2012-01-05T00:03:29.648Z;0;1.4130e+01;0;     0.122;   918.204;  33770.500; 0;  33758.016;  33770.500;  34220.238;  33302.035;159;   7.941; 293.939;;;  73.582;  48.994;   9.599;  -0.262;  -0.537;   7.941;   7.933;   6.423;  -4.669;  -0.036;;;;;;;;;;;;;;;;;;
2012-01-05T00:03:45.648Z;0;1.4380e+01;0;     0.121;   918.204;  34064.039; 0;  34051.660;  34064.039;  34513.859;  33595.656;159;   7.943; 294.072;;;  73.715;  49.129;   9.600;  -0.263;  -0.537;   7.943;   7.935;   6.426;  -4.669;  -0.036;;;;;;;;;;;;;;;;;;
2012-01-05T00:04:01.648Z;0;1.3790e+01;0;     0.136;   920.472;  33364.305; 0;  33351.605;  33364.305;  33815.016;  32894.543;159;   7.945; 294.205;;;  73.847;  49.263;   9.601;  -0.263;  -0.537;   7.945;   7.937;   6.429;  -4.668;  -0.036;;;;;;;;;;;;;;;;;;
2012-01-05T00:04:17.648Z;0;1.3900e+01;0;     0.133;   920.472;  33489.328; 0;  33476.676;  33489.328;  33940.074;  33019.602;159;   7.947; 294.338;;;  73.980;  49.398;   9.602;  -0.264;  -0.538;   7.947;   7.939;   6.432;  -4.667;  -0.037;;;;;;;;;;;;;;;;;;
2012-01-05T00:04:33.648Z;0;1.4170e+01;0;     0.119;   920.472;  33812.789; 0;  33800.258;  33812.789;  34263.629;  33343.156;159;   7.949; 294.471;;;  74.112;  49.533;   9.603;  -0.264;  -0.538;   7.949;   7.941;   6.435;  -4.666;  -0.037;;;;;;;;;;;;;;;;;;
2012-01-05T00:04:49.647Z;0;1.4190e+01;0;     0.115;   920.472;  33835.348; 0;  33822.824;  33835.348;  34286.191;  33365.719;159;   7.951; 294.604;;;  74.244;  49.667;   9.605;  -0.264;  -0.539;   7.951;   7.943;   6.438;  -4.666;  -0.037;;;;;;;;;;;;;;;;;;
2012-01-05T00:04:49.647Z;0;1.4190e+01;0;     0.115;   920.472;  33835.348; 0;  33822.824;  33835.348;  34286.191;  33365.719;159;   7.951; 294.604;;;  74.244;  49.667;   9.605;  -0.264;  -0.539;   7.951;   7.943;   6.438;  -4.666;  -0.037;;;;;;;;;;;;;;;;;;
2012-01-05T00:05:05.647Z;0;1.4260e+01;0;     0.121;   921.340;  33926.855; 0;  33914.344;  33926.855;  34378.141;  33456.801;159;   7.953; 294.737;;;  74.376;  49.802;   9.606;  -0.265;  -0.539;   7.953;   7.945;   6.441;  -4.665;  -0.037;;;;;;;;;;;;;;;;;;
2012-01-05T00:05:21.647Z;0;1.3960e+01;0;     0.127;   921.340;  33558.910; 0;  33546.262;  33558.910;  34010.094;  33088.754;159;   7.955; 294.870;;;  74.508;  49.937;   9.607;  -0.265;  -0.539;   7.955;   7.947;   6.444;  -4.664;  -0.037;;;;;;;;;;;;;;;;;;
2012-01-05T00:05:37.647Z;0;1.4040e+01;0;     0.133;   921.340;  33660.840; 0;  33648.227;  33660.840;  34112.051;  33190.711;159;   7.957; 295.003;;;  74.640;  50.072;   9.608;  -0.266;  -0.540;   7.957;   7.949;   6.447;  -4.663;  -0.037;;;;;;;;;;;;;;;;;;
2012-01-05T00:05:53.647Z;0;1.3560e+01;0;     0.136;   921.340;  33084.273; 0;  33071.441;  33084.273;  33535.320;  32613.980;159;   7.959; 295.136;;;  74.772;  50.207;   9.609;  -0.266;  -0.540;   7.959;   7.951;   6.450;  -4.662;  -0.037;;;;;;;;;;;;;;;;;;
2012-01-05T00:06:09.647Z;0;1.4030e+01;0;     0.130;   916.020;  33650.676; 0;  33638.207;  33650.676;  34099.332;  33183.312;159;   7.961; 295.269;;;  74.904;  50.342;   9.610;  -0.267;  -0.541;   7.961;   7.953;   6.453;  -4.662;  -0.037;;;;;;;;;;;;;;;;;;
2012-01-05T00:06:25.647Z;0;1.4250e+01;0;     0.118;   916.020;  33912.426; 0;  33900.051;  33912.426;  34361.156;  33445.137;159;   7.963; 295.402;;;  75.036;  50.477;   9.611;  -0.267;  -0.541;   7.963;   7.955;   6.456;  -4.661;  -0.037;;;;;;;;;;;;;;;;;;
2012-01-05T00:06:41.647Z;0;1.4290e+01;0;     0.109;   916.020;  33957.125; 0;  33944.766;  33957.125;  34405.867;  33489.848;159;   7.965; 295.535;;;  75.168;  50.613;   9.613;  -0.268;  -0.541;   7.965;   7.957;   6.459;  -4.660;  -0.037;;;;;;;;;;;;;;;;;;
2012-01-05T00:06:57.647Z;0;1.4090e+01;0;     0.122;   916.020;  33714.492; 0;  33702.047;  33714.492;  34163.168;  33247.148;159;   7.967; 295.668;;;  75.300;  50.748;   9.614;  -0.268;  -0.542;   7.967;   7.959;   6.462;  -4.659;  -0.037;;;;;;;;;;;;;;;;;;
2012-01-05T00:07:13.647Z;0;1.3960e+01;0;     0.127;   916.748;  33558.910; 0;  33546.387;  33558.910;  34007.891;  33091.145;159;   7.969; 295.801;;;  75.431;  50.884;   9.615;  -0.269;  -0.542;   7.969;   7.961;   6.465;  -4.658;  -0.037;;;;;;;;;;;;;;;;;;
2012-01-05T00:07:29.646Z;0;1.3380e+01;0;     0.125;   916.748;  32860.387; 0;  32847.598;  32860.387;  33309.168;  32392.420;159;   7.970; 295.934;;;  75.563;  51.019;   9.616;  -0.269;  -0.543;   7.971;   7.963;   6.468;  -4.658;  -0.037;;;;;;;;;;;;;;;;;;
2012-01-05T00:07:45.646Z;0;1.3810e+01;0;     0.132;   916.748;  33388.637; 0;  33376.047;  33388.637;  33837.570;  32920.820;159;   7.972; 296.067;;;  75.694;  51.155;   9.617;  -0.270;  -0.543;   7.973;   7.965;   6.471;  -4.657;  -0.038;;;;;;;;;;;;;;;;;;
2012-01-05T00:08:01.646Z;0;1.3880e+01;0;     0.127;   907.396;  33464.617; 0;  33452.312;  33464.617;  33909.086;  33001.691;159;   7.974; 296.200;;;  75.826;  51.290;   9.618;  -0.270;  -0.543;   7.975;   7.966;   6.474;  -4.656;  -0.038;;;;;;;;;;;;;;;;;;
2012-01-05T00:08:17.646Z;0;1.4100e+01;0;     0.120;   907.396;  33727.891; 0;  33715.684;  33727.891;  34172.434;  33265.035;159;   7.976; 296.333;;;  75.957;  51.426;   9.619;  -0.270;  -0.544;   7.977;   7.968;   6.477;  -4.655;  -0.038;;;;;;;;;;;;;;;;;;
2012-01-05T00:08:33.646Z;0;1.4120e+01;0;     0.128;   907.396;  33755.586; 0;  33743.387;  33755.586;  34200.137;  33292.738;159;   7.978; 296.466;;;  76.089;  51.562;   9.620;  -0.271;  -0.544;   7.978;   7.970;   6.480;  -4.654;  -0.038;;;;;;;;;;;;;;;;;;
2012-01-05T00:08:49.646Z;0;1.3940e+01;0;     0.134;   907.396;  33538.113; 0;  33525.836;  33538.113;  33982.605;  33075.207;159;   7.980; 296.599;;;  76.220;  51.698;   9.622;  -0.271;  -0.544;   7.980;   7.972;   6.483;  -4.654;  -0.038;;;;;;;;;;;;;;;;;;
2012-01-05T00:09:05.646Z;0;1.3930e+01;0;     0.132;   904.512;  33524.848; 0;  33512.645;  33524.848;  33967.949;  33063.438;159;   7.982; 296.732;;;  76.351;  51.834;   9.623;  -0.272;  -0.545;   7.982;   7.974;   6.486;  -4.653;  -0.038;;;;;;;;;;;;;;;;;;
2012-01-05T00:09:21.646Z;0;1.3870e+01;0;     0.138;   904.512;  33458.617; 0;  33446.391;  33458.617;  33901.703;  32997.191;159;   7.984; 296.865;;;  76.482;  51.970;   9.624;  -0.272;  -0.545;   7.984;   7.976;   6.488;  -4.652;  -0.038;;;;;;;;;;;;;;;;;;
2012-01-05T00:09:37.646Z;0;1.3490e+01;0;     0.133;   904.512;  32994.824; 0;  32982.426;  32994.824;  33437.781;  32533.268;159;   7.986; 296.998;;;  76.613;  52.106;   9.625;  -0.273;  -0.546;   7.986;   7.978;   6.491;  -4.651;  -0.038;;;;;;;;;;;;;;;;;;
2012-01-05T00:09:53.646Z;0;1.4020e+01;0;     0.118;   904.512;  33631.891; 0;  33619.727;  33631.891;  34075.023;  33170.512;159;   7.988; 297.131;;;  76.745;  52.242;   9.626;  -0.273;  -0.546;   7.988;   7.980;   6.494;  -4.651;  -0.038;;;;;;;;;;;;;;;;;;
2012-01-05T00:10:09.645Z;0;1.3290e+01;0;     0.132;   901.376;  32755.145; 0;  32742.740;  32755.145;  33196.531;  32295.154;159;   7.990; 297.264;;;  76.876;  52.377;   9.627;  -0.274;  -0.546;   7.990;   7.982;   6.497;  -4.650;  -0.038;;;;;;;;;;;;;;;;;;
2012-01-05T00:10:25.645Z;0;1.4330e+01;0;     0.126;   901.376;  34009.453; 0;  33997.508;  34009.453;  34451.180;  33549.805;159;   7.992; 297.397;;;  77.009;  52.511;   9.628;  -0.274;  -0.547;   7.992;   7.984;   6.500;  -4.649;  -0.038;;;;;;;;;;;;;;;;;;
2012-01-05T00:10:41.645Z;0;1.3920e+01;0;     0.131;   901.376;  33517.527; 0;  33505.406;  33517.527;  33959.125;  33057.746;159;   7.994; 297.531;;;  77.141;  52.644;   9.630;  -0.275;  -0.547;   7.994;   7.986;   6.503;  -4.648;  -0.038;;;;;;;;;;;;;;;;;;
2012-01-05T00:10:57.645Z;0;1.3390e+01;0;     0.131;   901.376;  32874.832; 0;  32862.473;  32874.832;  33316.250;  32414.875;159;   7.996; 297.664;;;  77.273;  52.778;   9.631;  -0.275;  -0.548;   7.996;   7.988;   6.506;  -4.647;  -0.038;;;;;;;;;;;;;;;;;;
2012-01-05T00:11:13.645Z;0;1.4190e+01;0;     0.116;   892.696;  33844.906; 0;  33833.133;  33844.906;  34282.422;  33389.727;159;   7.998; 297.797;;;  77.406;  52.911;   9.632;  -0.275;  -0.548;   7.998;   7.990;   6.509;  -4.647;  -0.038;;;;;;;;;;;;;;;;;;
2012-01-05T00:11:29.645Z;0;1.4010e+01;0;     0.132;   892.696;  33627.477; 0;  33615.625;  33627.477;  34064.938;  33172.242;159;   8.000; 297.930;;;  77.538;  53.044;   9.633;  -0.276;  -0.548;   8.000;   7.992;   6.512;  -4.646;  -0.039;;;;;;;;;;;;;;;;;;
2012-01-05T00:11:45.645Z;0;1.4120e+01;0;     0.119;   892.696;  33756.137; 0;  33744.332;  33756.137;  34193.629;  33300.934;159;   8.002; 298.063;;;  77.670;  53.178;   9.634;  -0.276;  -0.549;   8.002;   7.994;   6.515;  -4.645;  -0.039;;;;;;;;;;;;;;;;;;
2012-01-05T00:12:01.645Z;0;1.3900e+01;0;     0.124;   902.300;  33495.230; 0;  33483.074;  33495.230;  33937.266;  33034.965;159;   8.004; 298.196;;;  77.803;  53.311;   9.635;  -0.277;  -0.549;   8.004;   7.996;   6.518;  -4.644;  -0.039;;;;;;;;;;;;;;;;;;
2012-01-05T00:12:17.645Z;0;1.3810e+01;0;     0.129;   902.300;  33381.223; 0;  33369.027;  33381.223;  33823.227;  32920.926;159;   8.006; 298.330;;;  77.935;  53.444;   9.636;  -0.277;  -0.550;   8.006;   7.998;   6.521;  -4.643;  -0.039;;;;;;;;;;;;;;;;;;
2012-01-05T00:12:50.019Z;0;1.3880e+01;0;     0.137;   902.300;  33473.680; 0;  33461.516;  33473.680;  33915.707;  33013.406;159;   8.010; 298.599;;;  78.203;  53.713;   9.639;  -0.278;  -0.550;   8.010;   8.002;   6.527;  -4.642;  -0.039;;;;;;;;;;;;;;;;;;
2012-01-05T00:13:05.644Z;0;1.4100e+01;0;     0.123;   892.388;  33732.230; 0;  33720.426;  33732.230;  34169.570;  33277.184;159;   8.011; 298.729;;;  78.332;  53.843;   9.640;  -0.279;  -0.551;   8.012;   8.003;   6.530;  -4.641;  -0.039;;;;;;;;;;;;;;;;;;
2012-01-05T00:13:21.644Z;0;1.3780e+01;0;     0.135;   892.388;  33352.754; 0;  33340.812;  33352.754;  33789.992;  32897.605;159;   8.013; 298.862;;;  78.465;  53.976;   9.641;  -0.279;  -0.551;   8.014;   8.005;   6.533;  -4.640;  -0.039;;;;;;;;;;;;;;;;;;
2012-01-05T00:13:37.644Z;0;1.3530e+01;0;     0.144;   892.388;  33047.000; 0;  33034.949;  33047.000;  33484.156;  32591.768;159;   8.015; 298.996;;;  78.597;  54.109;   9.642;  -0.280;  -0.551;   8.016;   8.007;   6.536;  -4.639;  -0.039;;;;;;;;;;;;;;;;;;
2012-01-05T00:13:53.644Z;0;1.3880e+01;0;     0.127;   892.388;  33473.312; 0;  33461.414;  33473.312;  33910.582;  33018.195;159;   8.017; 299.129;;;  78.730;  54.241;   9.643;  -0.280;  -0.552;   8.017;   8.009;   6.539;  -4.639;  -0.039;;;;;;;;;;;;;;;;;;
2012-01-05T00:14:09.644Z;0;1.3350e+01;0;     0.126;   899.948;  32819.082; 0;  32806.742;  32819.082;  33259.801;  32359.852;159;   8.019; 299.262;;;  78.862;  54.374;   9.644;  -0.280;  -0.552;   8.019;   8.011;   6.542;  -4.638;  -0.039;;;;;;;;;;;;;;;;;;
2012-01-05T00:14:25.644Z;0;1.3210e+01;0;     0.126;   899.948;  32656.748; 0;  32644.346;  32656.748;  33097.422;  32197.473;159;   8.021; 299.395;;;  78.994;  54.507;   9.645;  -0.281;  -0.553;   8.021;   8.013;   6.545;  -4.637;  -0.039;;;;;;;;;;;;;;;;;;
2012-01-05T00:14:41.644Z;0;1.3330e+01;0;     0.128;   899.948;  32803.559; 0;  32791.211;  32803.559;  33244.273;  32344.324;159;   8.023; 299.529;;;  79.127;  54.639;   9.647;  -0.281;  -0.553;   8.023;   8.015;   6.548;  -4.636;  -0.039;;;;;;;;;;;;;;;;;;
2012-01-05T00:14:57.644Z;0;1.4120e+01;0;     0.131;   899.948;  33759.273; 0;  33747.277;  33759.273;  34200.250;  33300.301;159;   8.025; 299.662;;;  79.259;  54.772;   9.648;  -0.282;  -0.553;   8.025;   8.017;   6.551;  -4.635;  -0.039;;;;;;;;;;;;;;;;;;
2012-01-05T00:15:13.644Z;0;1.3470e+01;0;     0.135;   887.712;  32972.195; 0;  32960.242;  32972.195;  33407.086;  32519.375;159;   8.027; 299.795;;;  79.392;  54.904;   9.649;  -0.282;  -0.554;   8.027;   8.019;   6.554;  -4.635;  -0.040;;;;;;;;;;;;;;;;;;
2012-01-05T00:15:29.643Z;0;1.4080e+01;0;     0.124;   887.712;  33706.684; 0;  33694.992;  33706.684;  34141.770;  33254.059;159;   8.029; 299.928;;;  79.524;  55.037;   9.650;  -0.283;  -0.554;   8.029;   8.021;   6.557;  -4.634;  -0.040;;;;;;;;;;;;;;;;;;
2012-01-05T00:15:45.643Z;0;1.4200e+01;0;     0.117;   887.712;  33850.062; 0;  33838.422;  33850.062;  34285.188;  33397.477;159;   8.031; 300.062;;;  79.657;  55.169;   9.651;  -0.283;  -0.555;   8.031;   8.023;   6.560;  -4.633;  -0.040;;;;;;;;;;;;;;;;;;
2012-01-05T00:16:01.643Z;0;1.3850e+01;0;     0.126;   883.400;  33433.199; 0;  33421.527;  33433.199;  33866.145;  32982.746;159;   8.033; 300.195;;;  79.789;  55.301;   9.652;  -0.284;  -0.555;   8.033;   8.025;   6.563;  -4.632;  -0.040;;;;;;;;;;;;;;;;;;
2012-01-05T00:16:17.643Z;0;1.3110e+01;0;     0.119;   883.400;  32531.664; 0;  32519.668;  32531.664;  32964.367;  32080.967;159;   8.035; 300.328;;;  79.922;  55.433;   9.653;  -0.284;  -0.555;   8.035;   8.027;   6.566;  -4.631;  -0.040;;;;;;;;;;;;;;;;;;
2012-01-05T00:16:33.643Z;0;1.3890e+01;0;     0.139;   883.400;  33483.500; 0;  33471.844;  33483.500;  33916.457;  33033.059;159;   8.037; 300.461;;;  80.054;  55.566;   9.654;  -0.284;  -0.556;   8.037;   8.029;   6.568;  -4.631;  -0.040;;;;;;;;;;;;;;;;;;
2012-01-05T00:16:49.643Z;0;1.3850e+01;0;     0.141;   883.400;  33428.512; 0;  33416.836;  33428.512;  33861.457;  32978.055;159;   8.039; 300.595;;;  80.187;  55.698;   9.656;  -0.285;  -0.556;   8.039;   8.031;   6.571;  -4.630;  -0.040;;;;;;;;;;;;;;;;;;
2012-01-05T00:17:05.643Z;0;1.3250e+01;0;     0.126;   881.776;  32700.227; 0;  32688.336;  32700.227;  33132.195;  32250.420;159;   8.041; 300.728;;;  80.319;  55.830;   9.657;  -0.285;  -0.556;   8.041;   8.033;   6.574;  -4.629;  -0.040;;;;;;;;;;;;;;;;;;
2012-01-05T00:17:21.643Z;0;1.3180e+01;0;     0.124;   881.776;  32611.264; 0;  32599.340;  32611.264;  33043.211;  32161.434;159;   8.043; 300.861;;;  80.452;  55.962;   9.658;  -0.286;  -0.557;   8.043;   8.035;   6.577;  -4.628;  -0.040;;;;;;;;;;;;;;;;;;
2012-01-05T00:17:37.643Z;0;1.2990e+01;0;     0.129;   881.776;  32379.617; 0;  32367.609;  32379.617;  32811.500;  31929.723;159;   8.045; 300.995;;;  80.584;  56.094;   9.659;  -0.286;  -0.557;   8.045;   8.037;   6.580;  -4.627;  -0.040;;;;;;;;;;;;;;;;;;
2012-01-05T00:17:53.643Z;0;1.3160e+01;0;     0.124;   881.776;  32585.045; 0;  32573.111;  32585.045;  33016.984;  32135.207;159;   8.047; 301.128;;;  80.717;  56.225;   9.660;  -0.287;  -0.558;   8.047;   8.039;   6.583;  -4.627;  -0.040;;;;;;;;;;;;;;;;;;
2012-01-05T00:18:09.642Z;0;1.3260e+01;0;     0.127;   883.540;  32712.055; 0;  32700.121;  32712.055;  33144.875;  32261.334;159;   8.049; 301.262;;;  80.850;  56.357;   9.661;  -0.287;  -0.558;   8.049;   8.041;   6.586;  -4.626;  -0.040;;;;;;;;;;;;;;;;;;
2012-01-05T00:18:25.642Z;0;1.3800e+01;0;     0.134;   883.540;  33368.504; 0;  33356.805;  33368.504;  33801.500;  32917.961;159;   8.050; 301.395;;;  80.982;  56.489;   9.662;  -0.288;  -0.558;   8.051;   8.042;   6.589;  -4.625;  -0.040;;;;;;;;;;;;;;;;;;
2012-01-05T00:18:41.642Z;0;1.3240e+01;0;     0.132;   883.540;  32689.953; 0;  32678.012;  32689.953;  33122.766;  32239.227;159;   8.052; 301.528;;;  81.115;  56.620;   9.663;  -0.288;  -0.559;   8.053;   8.044;   6.592;  -4.624;  -0.040;;;;;;;;;;;;;;;;;;
2012-01-05T00:18:57.642Z;0;1.3270e+01;0;     0.129;   883.540;  32727.682; 0;  32715.754;  32727.682;  33160.504;  32276.965;159;   8.054; 301.662;;;  81.247;  56.752;   9.664;  -0.289;  -0.559;   8.055;   8.046;   6.595;  -4.623;  -0.041;;;;;;;;;;;;;;;;;;
2012-01-05T00:19:13.642Z;0;1.3290e+01;0;     0.131;   873.432;  32744.045; 0;  32732.395;  32744.045;  33172.023;  32298.592;159;   8.056; 301.795;;;  81.380;  56.883;   9.666;  -0.289;  -0.559;   8.057;   8.048;   6.598;  -4.622;  -0.041;;;;;;;;;;;;;;;;;;
2012-01-05T00:19:29.642Z;0;1.3380e+01;0;     0.129;   873.432;  32856.113; 0;  32844.500;  32856.113;  33284.121;  32410.689;159;   8.058; 301.928;;;  81.513;  57.015;   9.667;  -0.289;  -0.560;   8.058;   8.050;   6.601;  -4.622;  -0.041;;;;;;;;;;;;;;;;;;
2012-01-05T00:19:45.642Z;0;1.3960e+01;0;     0.127;   873.432;  33558.910; 0;  33547.543;  33558.910;  33987.102;  33113.668;159;   8.060; 302.062;;;  81.645;  57.146;   9.668;  -0.290;  -0.560;   8.060;   8.052;   6.604;  -4.621;  -0.041;;;;;;;;;;;;;;;;;;
2012-01-05T00:20:01.642Z;0;1.3300e+01;0;     0.134;   879.816;  32762.615; 0;  32750.799;  32762.615;  33193.660;  32313.846;159;   8.062; 302.195;;;  81.778;  57.278;   9.669;  -0.290;  -0.561;   8.062;   8.054;   6.607;  -4.620;  -0.041;;;;;;;;;;;;;;;;;;
2012-01-05T00:20:17.642Z;0;1.3310e+01;0;     0.130;   879.816;  32779.188; 0;  32767.379;  32779.188;  33210.238;  32330.422;159;   8.064; 302.329;;;  81.912;  57.412;   9.670;  -0.291;  -0.561;   8.064;   8.056;   6.610;  -4.619;  -0.041;;;;;;;;;;;;;;;;;;
2012-01-05T00:20:33.642Z;0;1.3020e+01;0;     0.126;   879.816;  32415.588; 0;  32403.646;  32415.588;  32846.539;  31966.725;159;   8.066; 302.462;;;  82.046;  57.546;   9.671;  -0.291;  -0.561;   8.066;   8.058;   6.613;  -4.618;  -0.041;;;;;;;;;;;;;;;;;;
2012-01-05T00:20:49.641Z;0;1.2940e+01;0;     0.128;   879.816;  32320.766; 0;  32308.789;  32320.766;  32751.691;  31871.875;159;   8.068; 302.596;;;  82.180;  57.680;   9.672;  -0.292;  -0.562;   8.068;   8.060;   6.616;  -4.618;  -0.041;;;;;;;;;;;;;;;;;;
2012-01-05T00:21:05.641Z;0;1.3060e+01;0;     0.124;   877.436;  32467.062; 0;  32455.203;  32467.062;  32896.887;  32019.451;159;   8.070; 302.729;;;  82.314;  57.814;   9.673;  -0.292;  -0.562;   8.070;   8.062;   6.619;  -4.617;  -0.041;;;;;;;;;;;;;;;;;;
2012-01-05T00:21:21.641Z;0;1.3170e+01;0;     0.133;   877.436;  32604.553; 0;  32592.744;  32604.553;  33034.414;  32156.979;159;   8.072; 302.862;;;  82.449;  57.949;   9.674;  -0.293;  -0.563;   8.072;   8.064;   6.622;  -4.616;  -0.041;;;;;;;;;;;;;;;;;;
2012-01-05T00:21:37.641Z;0;1.3140e+01;0;     0.130;   877.436;  32569.289; 0;  32557.467;  32569.289;  32999.141;  32121.705;159;   8.074; 302.996;;;  82.583;  58.083;   9.676;  -0.293;  -0.563;   8.074;   8.066;   6.624;  -4.615;  -0.041;;;;;;;;;;;;;;;;;;
2012-01-05T00:21:53.641Z;0;1.3190e+01;0;     0.124;   877.436;  32630.189; 0;  32618.391;  32630.189;  33060.059;  32182.623;159;   8.076; 303.129;;;  82.718;  58.218;   9.677;  -0.293;  -0.563;   8.076;   8.068;   6.627;  -4.614;  -0.041;;;;;;;;;;;;;;;;;;
2012-01-05T00:22:09.641Z;0;1.3180e+01;0;     0.123;   864.136;  32612.695; 0;  32601.244;  32612.695;  33036.176;  32172.039;159;   8.078; 303.263;;;  82.852;  58.352;   9.678;  -0.294;  -0.564;   8.078;   8.070;   6.630;  -4.614;  -0.041;;;;;;;;;;;;;;;;;;
2012-01-05T00:22:25.641Z;0;1.3350e+01;0;     0.129;   864.136;  32816.930; 0;  32805.551;  32816.930;  33240.465;  32376.328;159;   8.080; 303.396;;;  82.987;  58.487;   9.679;  -0.294;  -0.564;   8.080;   8.072;   6.633;  -4.613;  -0.042;;;;;;;;;;;;;;;;;;
2012-01-05T00:22:57.641Z;0;1.3190e+01;0;     0.131;   864.136;  32628.895; 0;  32617.449;  32628.895;  33052.379;  32188.244;159;   8.084; 303.663;;;  83.256;  58.756;   9.681;  -0.295;  -0.565;   8.084;   8.076;   6.639;  -4.611;  -0.042;;;;;;;;;;;;;;;;;;